Theta_e
314 311 309 308 308 308 308 308 308 308 309 309 308 308 309 310 313 313 314 315 313 315 315 314 319 323 323 324 323 321 319 318 318 318 319 319 318 319 319 320 319 320 322 326 341
312 313 314 313 312 310 309 309 309 308 309 309 309 309 308 309 312 314 315 314 314 315 315 315 319 322 322 323 322 318 316 318 317 318 317 318 318 319 319 319 319 319 322 325 340
306 306 306 307 310 314 316 315 314 311 309 309 309 309 309 308 311 317 317 316 313 318 315 315 319 321 321 321 321 317 316 315 320 321 319 319 318 319 318 317 319 319 319 326 337
305 305 305 305 305 305 306 306 309 315 317 313 310 309 309 308 310 318 317 315 317 317 316 319 320 319 316 318 319 321 319 319 320 321 320 318 319 319 318 319 319 319 319 321 329
306 306 306 306 307 307 307 306 306 306 307 317 317 312 310 309 310 312 318 316 317 317 315 319 319 318 316 316 318 318 318 319 320 320 319 319 318 318 319 320 319 320 320 320 321
305 305 306 307 308 308 307 307 306 307 307 306 316 319 312 309 310 312 313 317 316 318 317 319 319 319 318 317 317 317 317 317 318 319 318 318 318 318 320 320 320 320 320 321 321
304 305 306 307 308 309 308 308 308 307 307 307 307 318 315 314 312 311 318 318 317 318 316 319 319 319 318 315 316 317 317 315 316 317 316 318 317 316 319 320 320 319 320 320 321
304 304 304 305 306 306 308 309 309 310 309 309 310 316 313 313 311 310 317 319 317 318 316 317 320 319 317 316 315 315 314 315 314 316 317 317 316 314 318 318 319 320 320 320 320
303 302 303 303 304 304 305 307 309 309 311 313 313 312 312 312 312 311 312 316 318 317 316 319 318 317 316 313 312 312 310 314 314 316 317 316 316 314 317 316 318 319 320 320 320
302 301 301 302 303 304 305 307 309 311 314 316 315 315 314 314 315 316 313 316 317 316 317 319 317 314 311 312 314 311 315 314 314 315 316 316 315 315 318 317 317 318 317 318 319
302 301 301 301 302 306 307 306 309 311 310 312 315 316 314 314 314 317 315 317 317 317 317 317 316 317 315 313 312 313 314 315 314 314 316 315 315 314 315 314 315 317 318 317 318
300 301 302 303 302 304 303 307 301 303 304 309 310 310 311 313 315 316 316 318 319 317 315 316 317 316 315 314 314 315 316 315 315 315 315 314 315 313 313 315 316 316 317 318 317
299 300 301 301 303 303 301 300 299 301 304 309 311 312 313 313 313 312 315 318 318 317 315 317 317 317 317 316 317 316 316 316 316 315 314 311 313 312 311 312 313 314 314 315 316
299 300 301 301 304 302 303 302 299 307 309 308 313 315 315 314 313 313 312 317 317 318 316 316 316 318 318 318 317 318 316 317 318 318 318 312 317 313 311 309 312 316 316 314 314
300 300 299 299 299 301 302 302 309 313 305 309 315 315 314 313 313 315 313 317 317 318 317 318 317 318 319 319 316 317 317 317 318 317 313 314 314 314 310 312 311 313 316 315 316
298 297 297 298 299 301 300 302 313 302 303 307 314 312 310 312 313 314 314 316 317 318 317 316 317 317 318 318 317 316 315 313 312 312 315 315 315 316 313 313 314 316 317 318 319
297 296 297 297 299 299 300 305 305 303 306 309 309 307 307 310 313 313 314 314 317 319 318 318 318 316 317 317 316 316 316 318 317 316 318 313 312 316 313 311 313 316 318 319 321
296 296 297 297 298 298 301 309 306 303 308 306 304 305 307 309 311 311 313 313 312 316 317 318 320 318 316 317 317 316 317 320 321 316 316 314 315 318 315 316 317 316 319 320 321
296 296 299 303 301 301 302 301 299 307 302 300 301 304 306 305 302 307 311 312 312 313 317 318 318 315 317 317 317 315 316 315 314 312 314 315 314 314 317 318 317 317 319 320 321
296 299 301 302 301 302 299 300 298 302 303 302 299 301 303 301 302 302 306 312 313 312 312 314 316 315 316 315 314 315 313 317 314 319 319 315 314 317 315 315 319 318 318 319 321
295 299 301 303 303 303 298 300 302 303 303 303 302 302 301 301 301 300 303 305 311 310 311 311 313 314 315 316 316 314 315 314 316 314 316 316 315 312 315 312 315 317 319 319 321
295 297 301 301 300 300 298 302 303 302 301 302 302 302 302 301 302 300 301 302 303 308 305 311 312 315 315 313 314 314 315 315 317 315 312 312 315 312 314 312 315 318 319 320 321
295 296 296 296 290 289 296 298 298 299 299 300 301 301 302 303 303 303 303 303 303 309 311 311 314 316 315 314 313 313 312 312 310 311 314 315 315 312 316 318 319 319 320 320 321
295 289 296 298 297 297 297 297 298 298 299 299 299 300 300 300 301 302 302 303 303 304 306 307 311 310 314 315 312 313 310 310 312 312 314 314 314 313 315 318 319 319 320 320 320
295 292 296 288 291 295 296 295 295 295 298 297 299 300 300 301 300 299 300 301 302 303 304 306 308 311 311 310 308 308 308 308 308 311 313 313 312 314 312 313 317 318 320 320 321
295 294 294 295 295 292 293 293 295 295 296 297 299 299 300 299 299 299 299 300 301 300 303 305 305 306 306 307 310 309 308 307 307 307 308 309 312 313 312 313 315 317 319 320 321
296 295 295 294 292 293 294 294 295 295 296 297 298 298 298 298 299 299 299 300 301 301 302 301 303 303 300 301 303 305 306 307 305 306 307 309 312 312 311 311 313 315 317 318 319
Wind_Speed
13 12 12 13 14 15 16 16 16 16 16 16 16 17 17 18 17 18 19 8 8 12 8 9 9 8 6 5 3 3 3 2 4 4 4 2 2 3 3 6 5 7 4 3 18
14 14 14 15 15 15 16 16 16 16 15 15 15 16 17 19 20 21 11 8 9 14 10 11 12 9 4 3 3 4 3 6 4 3 3 1 1 1 2 3 5 5 8 8 19
14 15 15 16 17 18 18 18 18 18 18 17 17 15 17 17 19 2 3 7 12 12 7 9 12 9 3 3 4 3 5 4 5 7 3 3 2 4 5 4 11 11 12 15 21
15 16 17 17 17 17 18 18 19 19 19 18 18 16 16 13 5 3 1 5 12 12 12 12 11 8 4 4 5 2 9 8 6 6 5 3 4 4 12 14 12 13 12 17 23
17 18 19 19 19 18 18 18 18 18 19 18 18 16 14 8 15 12 8 10 16 15 15 15 12 6 4 4 3 4 5 9 13 17 16 16 12 10 11 14 16 14 15 19 21
17 18 18 20 21 21 20 19 19 18 19 17 18 17 14 6 7 7 10 14 18 17 17 18 8 10 4 3 4 3 6 11 13 18 11 5 6 6 12 11 14 14 15 19 21
18 18 19 20 22 23 21 21 20 18 18 17 16 17 18 25 14 10 9 14 18 17 19 18 10 9 4 2 3 5 6 7 9 9 7 7 8 8 29 17 12 18 23 23 25
17 18 20 22 22 23 21 19 20 20 17 15 14 13 13 12 12 17 13 14 18 17 17 14 14 8 6 2 4 3 2 4 5 3 3 10 9 12 15 18 24 22 20 21 27
18 19 20 22 23 23 21 18 17 16 14 11 10 8 13 9 10 11 15 17 16 16 15 5 12 6 4 5 4 4 4 4 8 2 2 4 7 6 7 11 21 23 26 25 24
19 20 19 21 22 22 20 19 14 12 11 9 8 6 10 4 2 2 10 16 15 16 12 9 6 3 3 4 6 5 4 4 6 2 1 4 12 12 29 19 22 24 21 22 24
20 20 18 19 19 21 23 13 4 3 6 7 7 11 19 13 8 4 9 17 14 12 7 3 3 11 9 7 5 4 3 5 4 7 4 8 10 13 20 12 18 25 24 23 22
19 20 19 20 16 18 19 12 12 10 14 25 25 30 36 23 10 6 10 16 9 7 6 1 12 7 6 6 6 5 3 8 7 8 4 8 18 13 10 14 25 30 33 32 24
19 20 20 21 11 18 17 18 14 12 5 16 11 10 6 7 11 27 11 13 5 7 8 10 5 7 12 5 7 5 6 4 8 5 5 6 9 5 5 9 20 19 21 25 31
17 20 21 20 8 19 10 15 13 8 4 7 4 2 2 2 5 6 25 14 7 14 7 8 12 3 4 7 8 6 8 10 8 2 4 3 7 5 7 9 6 9 12 17 21
18 18 19 18 16 14 18 15 6 2 5 1 1 1 0 3 11 6 11 18 7 6 7 7 6 14 16 9 7 8 6 7 4 4 1 3 3 6 3 7 8 5 8 8 14
19 19 18 16 13 14 17 11 1 4 7 5 1 3 3 3 3 3 3 6 7 5 3 5 5 6 7 10 13 1 3 4 4 3 2 7 7 5 4 4 5 3 6 9 16
17 16 14 13 14 15 15 5 3 3 5 5 4 6 6 4 4 3 5 7 7 6 13 5 9 3 4 6 2 5 4 1 1 1 6 1 1 9 6 7 5 4 11 16 21
13 13 12 13 17 13 9 3 3 2 5 5 7 9 4 6 2 5 2 4 9 3 3 7 7 15 10 19 8 7 8 5 6 4 4 2 5 6 4 4 9 11 14 22 22
9 8 5 4 6 4 2 2 4 3 5 9 9 6 5 6 6 6 3 2 4 4 7 6 7 4 10 17 11 7 7 7 5 1 2 4 6 9 2 4 5 6 22 26 24
9 4 8 5 4 2 4 4 2 5 5 6 3 6 5 9 9 9 4 4 3 7 3 5 6 6 1 6 2 12 8 3 1 4 4 4 3 8 5 7 4 5 14 24 24
5 4 7 6 5 4 2 5 4 3 15 7 4 5 5 5 5 7 6 6 4 6 6 5 3 2 6 7 11 4 5 0 3 5 5 1 5 5 3 8 8 7 16 26 28
4 2 1 4 3 2 2 1 8 10 14 5 5 7 9 8 4 5 7 3 26 10 12 2 3 3 13 3 3 6 7 9 4 4 3 3 6 2 3 6 4 6 14 20 27
4 3 1 2 2 1 5 4 9 7 7 3 6 7 4 5 6 4 4 13 28 7 4 2 1 3 3 2 4 6 5 7 3 2 10 6 4 1 5 4 4 6 10 17 24
2 2 2 3 2 3 1 5 4 6 15 11 8 12 10 11 11 9 9 8 22 19 23 16 3 7 7 3 5 5 10 11 5 1 3 7 8 6 3 2 2 7 11 16 23
3 1 2 2 3 3 2 4 8 7 7 14 5 9 10 4 9 16 14 8 11 19 14 5 7 5 7 9 6 8 14 13 10 6 4 5 9 12 8 5 6 8 13 19 26
5 6 4 4 4 2 3 3 6 10 6 7 9 12 10 12 15 16 12 10 7 8 7 3 10 5 3 8 11 12 15 17 15 12 12 14 12 13 17 5 6 11 15 21 27
7 8 4 6 4 3 4 5 6 8 12 20 15 12 14 22 18 18 21 18 9 7 10 6 5 3 4 3 5 9 15 15 13 8 6 11 7 12 13 7 10 14 18 23 27
Wind_Direction
338 328 320 317 316 315 315 315 316 316 316 318 319 319 317 315 312 301 287 270 230 207 202 193 185 185 184 162 151 139 66 266 256 197 252 298 175 152 145 165 191 195 196 193 181
332 328 319 312 310 307 305 305 304 304 305 308 311 313 316 315 311 301 283 237 200 194 195 186 181 180 177 189 180 127 138 224 221 246 253 267 184 174 148 184 226 212 200 190 183
336 330 325 319 313 309 307 307 307 306 305 305 305 309 313 319 319 277 308 215 192 184 186 178 176 178 179 181 211 182 197 223 274 265 283 293 271 202 178 218 224 221 218 191 189
348 342 337 331 323 319 316 313 308 303 301 302 303 308 309 316 297 192 153 181 179 180 179 168 167 157 153 197 199 221 246 245 276 275 305 259 260 237 217 235 243 240 235 207 199
347 341 336 331 325 323 321 318 314 310 301 297 296 300 305 284 263 262 235 193 190 191 192 184 181 172 181 197 180 200 260 269 261 275 279 269 253 239 246 258 249 242 225 216 215
341 338 334 328 323 323 321 319 314 309 305 297 290 294 293 258 272 253 233 213 206 200 193 192 202 208 214 214 179 231 259 276 287 279 273 238 271 213 254 260 249 222 216 215 222
350 347 338 328 325 322 323 318 311 309 303 296 288 285 274 265 267 241 225 228 216 212 200 202 196 180 206 266 265 293 313 315 248 262 226 222 287 235 255 250 246 231 232 227 225
347 347 343 333 329 324 323 317 310 306 302 295 285 280 266 281 263 236 218 212 219 215 210 217 212 233 217 236 3 353 28 322 279 123 282 158 267 277 280 245 243 238 232 232 228
342 344 341 335 330 324 332 325 311 304 300 292 276 258 268 279 280 255 233 221 215 215 214 201 200 190 151 101 5 359 254 238 314 223 115 191 267 274 354 248 248 240 237 241 239
337 339 345 337 335 328 335 338 315 304 302 297 265 284 258 265 283 292 218 212 204 207 209 216 207 142 84 117 226 213 231 240 248 288 325 235 259 268 281 263 264 259 257 237 236
333 339 350 344 341 339 338 353 326 300 305 262 253 252 272 266 280 254 212 197 201 191 186 190 169 224 187 191 186 147 202 254 257 267 304 264 267 269 270 258 248 251 249 234 234
333 343 351 351 351 354 346 52 28 327 307 292 279 261 257 255 289 231 209 178 171 188 133 55 234 224 192 193 203 203 246 274 282 275 188 281 283 265 247 249 247 243 240 233 230
334 341 344 352 349 1 29 26 353 328 267 297 282 274 299 253 233 240 208 197 164 164 190 203 219 212 190 182 194 217 213 220 236 325 281 307 285 268 285 253 258 249 248 247 239
338 340 340 350 346 348 7 0 336 325 10 279 281 301 239 218 256 289 228 185 198 199 164 232 220 188 156 215 192 252 210 229 246 94 250 1 291 254 274 300 262 255 246 241 228
333 336 338 346 336 335 338 346 342 32 354 250 226 286 262 213 307 23 208 203 185 166 150 232 185 212 226 203 158 227 172 194 207 188 358 282 288 270 339 305 297 259 247 220 208
330 331 336 336 338 320 326 342 323 44 247 319 69 355 19 256 272 30 121 225 221 174 262 230 213 181 217 227 207 140 135 55 51 105 257 224 194 286 266 229 301 297 224 205 179
325 326 333 327 311 308 323 344 16 173 344 336 344 3 334 285 300 180 184 193 206 169 232 234 231 238 191 169 113 167 120 310 309 358 230 86 185 253 278 249 235 231 202 178 172
323 317 316 299 298 292 313 52 214 288 284 360 352 320 262 7 283 326 213 233 237 260 160 177 265 201 200 216 185 182 169 172 203 204 245 66 234 250 227 299 280 254 202 175 175
334 340 9 345 349 314 118 113 230 357 347 347 331 295 298 1 3 353 261 196 28 235 220 192 240 225 223 215 184 188 201 195 104 56 39 226 285 299 62 327 345 177 173 179 180
6 82 42 27 35 108 65 253 286 50 3 349 301 24 327 344 353 13 313 348 26 37 341 311 273 193 154 115 171 210 156 139 6 188 235 273 261 239 306 300 247 192 177 179 180
21 98 80 82 89 94 162 248 301 108 30 15 338 322 328 309 342 342 292 310 30 358 49 359 307 284 142 179 184 145 200 74 160 156 181 212 254 207 232 288 269 212 195 184 182
56 61 112 51 72 83 162 233 326 323 337 278 238 254 260 278 289 257 246 284 324 308 306 89 313 277 240 331 146 177 181 209 206 234 238 177 248 115 302 309 292 199 199 193 189
105 119 42 8 109 325 313 301 304 293 282 243 263 265 296 288 295 261 300 304 326 327 20 348 250 288 196 64 19 61 27 17 318 48 212 183 253 100 49 18 94 159 191 198 192
101 62 64 71 111 136 289 267 249 297 285 268 273 273 271 269 260 261 291 302 295 297 298 310 254 192 273 10 8 325 352 357 349 225 278 227 252 272 177 201 158 166 195 202 206
98 162 85 285 268 157 100 296 292 290 243 288 270 266 286 268 295 280 276 302 310 297 288 240 247 225 239 251 195 255 294 299 284 284 283 325 309 291 265 253 206 236 198 202 210
148 143 143 253 250 139 204 218 233 277 259 282 259 284 276 277 256 275 292 281 257 314 311 237 253 236 267 254 236 241 240 247 251 261 260 251 264 270 286 255 232 235 211 218 221
172 175 191 224 173 146 223 220 250 287 278 256 268 281 284 258 274 280 287 274 238 256 268 296 180 143 246 297 282 249 237 229 246 212 215 263 250 286 287 234 232 240 228 237 240